User: anonymous   Login
Location: Waning Moon II Observatory
(30.3730°N, 89.7620°W)
Time: 06:14:29
(UTC-06:00)
Language:

Cosmos 1825 Rocket - Orbit

View from above orbital plane
View from above orbital plane
View from above satellite
View from above satellite

Ground track
Ground track

The orbit data is extracted from the following two-line orbital elements,

1 17567U 87024B   17325.19351808  .00000117  00000-0  11204-4 0  9991
2 17567  82.5316  52.0845 0019098 183.7361 176.3715 14.83678999659748
Epoch (UTC): 21 November 2017 04:38:39
Eccentricity: 0.0019098
inclination: 82.5316°
perigee height: 604 km
apogee height: 631 km
right ascension of ascending node: 52.0845°
argument of perigee: 183.7361°
revolutions per day: 14.83678999
mean anomaly at epoch: 176.3715°
orbit number at epoch: 65974

The dashed part of the orbit path shows where the satellite is in the earth's shadow,  

DLR